Yankton, SD

2:08 PM CDT on March 30, 2017 (GMT -0500)
Gurney Municipal

Weather History for KYKN - September, 2013

Change the Weather History Date:

Thursday, September 5, 2013

  Actual Average Record
Temperature  
Mean Temperature 77 °F -  
Max Temperature 86 °F 82 °F 96 °F (1990)
Min Temperature 68 °F 55 °F 37 °F (1962)
Cooling Degree Days 12    
Growing Degree Days 27 (Base 50)    
Moisture  
Dew Point 64 °F    
Average Humidity 73    
Maximum Humidity 88    
Minimum Humidity 48    
Precipitation  
Precipitation 0.08 in - - ()
Sea Level Pressure  
Sea Level Pressure 30.10 in    
Wind  
Wind Speed 10 mph (SE)    
Max Wind Speed 23 mph    
Max Gust Speed 29 mph    
Visibility 10 miles    
Events Thunderstorm    
Averages and records for this station are not official NWS values.
T = Trace of Precipitation, MM = Missing Value Source: NWS Daily Summary

Daily Weather History Graph

Daily Weather History Graph

Search for Another Location

Airport or City:

Trip Planner

Search our weather history database for the weather conditions in past years. The results will help you decide how hot, cold, wet, or windy it might be!

Date:

Astronomy

Sep. 05, 2013 Rise Set
Actual Time 6:58 AM CDT 7:56 PM CDT
Civil Twilight 6:29 AM CDT 8:25 PM CDT
Nautical Twilight 5:55 AM CDT 8:59 PM CDT
Astronomical Twilight 5:19 AM CDT 9:35 PM CDT
Moon 7:13 AM CDT (9/5) 7:46 PM CDT (9/5)
Length of Visible Light 13h 55m
Length of Day
12h 58m
New Moon, 0% of the Moon is Illuminated
Sep 5
New Moon
Sep 12
First Quarter
Sep 19
Full
Sep 26
Last Quarter
Oct 4
New

Hourly Weather History & Observations

Time (CDT) Temp. Heat Index Dew Point Humidity Pressure Visibility Wind Dir Wind Speed Gust Speed Precip Events Conditions
12:15 AM 71.6 °F - 64.4 °F 78% 30.09 in 10.0 mi SE 4.6 mph - N/A   Clear
12:35 AM 71.6 °F - 64.4 °F 78% 30.10 in 10.0 mi East 5.8 mph - N/A   Clear
12:55 AM 69.8 °F - 64.4 °F 83% 30.10 in 10.0 mi ESE 4.6 mph - N/A   Clear
1:15 AM 69.8 °F - 64.4 °F 83% 30.11 in 10.0 mi SE 5.8 mph - N/A   Clear
1:35 AM 69.8 °F - 64.4 °F 83% 30.11 in 10.0 mi ESE 4.6 mph - N/A   Clear
1:55 AM 69.8 °F - 64.4 °F 83% 30.12 in 10.0 mi SE 4.6 mph - N/A   Clear
2:15 AM 69.8 °F - 64.4 °F 83% 30.11 in 10.0 mi SE 6.9 mph - N/A   Clear
2:35 AM 69.8 °F - 62.6 °F 78% 30.11 in 10.0 mi SSE 6.9 mph - N/A   Scattered Clouds
2:55 AM 69.8 °F - 62.6 °F 78% 30.10 in 10.0 mi ESE 5.8 mph - N/A   Mostly Cloudy
3:15 AM 69.8 °F - 62.6 °F 78% 30.10 in 10.0 mi East 5.8 mph - N/A   Mostly Cloudy
3:35 AM 69.8 °F - 62.6 °F 78% 30.10 in 10.0 mi ESE 5.8 mph - N/A   Mostly Cloudy
3:55 AM 69.8 °F - 62.6 °F 78% 30.10 in 10.0 mi East 6.9 mph - N/A   Overcast
4:15 AM 69.8 °F - 62.6 °F 78% 30.10 in 10.0 mi ESE 6.9 mph - N/A   Overcast
4:35 AM 69.8 °F - 62.6 °F 78% 30.11 in 10.0 mi ESE 8.1 mph - N/A   Overcast
4:55 AM 69.8 °F - 62.6 °F 78% 30.11 in 10.0 mi ESE 8.1 mph - N/A   Overcast
5:15 AM 69.8 °F - 62.6 °F 78% 30.10 in 10.0 mi ESE 9.2 mph - N/A   Mostly Cloudy
5:35 AM 71.6 °F - 62.6 °F 73% 30.10 in 10.0 mi ESE 10.4 mph 16.1 mph N/A   Mostly Cloudy
5:55 AM 71.6 °F - 60.8 °F 69% 30.11 in 10.0 mi ESE 6.9 mph - N/A   Mostly Cloudy
6:15 AM 71.6 °F - 60.8 °F 69% 30.11 in 10.0 mi ESE 10.4 mph - N/A   Mostly Cloudy
6:35 AM 69.8 °F - 60.8 °F 73% 30.12 in 10.0 mi ESE 8.1 mph - N/A   Scattered Clouds
6:55 AM 69.8 °F - 60.8 °F 73% 30.13 in 10.0 mi East 6.9 mph - N/A   Mostly Cloudy
7:15 AM 68.0 °F - 60.8 °F 78% 30.12 in 10.0 mi ESE 9.2 mph - N/A   Scattered Clouds
7:35 AM 69.8 °F - 60.8 °F 73% 30.12 in 10.0 mi SE 11.5 mph - N/A   Clear
7:55 AM 69.8 °F - 60.8 °F 73% 30.12 in 10.0 mi SSE 15.0 mph - N/A   Clear
8:15 AM 71.6 °F - 60.8 °F 69% 30.12 in 10.0 mi SE 12.7 mph 18.4 mph N/A   Clear
8:35 AM 71.6 °F - 62.6 °F 73% 30.12 in 10.0 mi SSE 13.8 mph - N/A   Clear
8:55 AM 71.6 °F - 62.6 °F 73% 30.12 in 10.0 mi SE 16.1 mph 20.7 mph N/A   Clear
9:15 AM 71.6 °F - 62.6 °F 73% 30.12 in 10.0 mi SE 13.8 mph 20.7 mph N/A   Clear
9:35 AM 75.2 °F - 62.6 °F 65% 30.12 in 10.0 mi SE 15.0 mph 19.6 mph N/A   Clear
9:55 AM 75.2 °F - 62.6 °F 65% 30.12 in 10.0 mi SSE 15.0 mph 23.0 mph N/A   Clear
10:15 AM 75.2 °F - 62.6 °F 65% 30.12 in 10.0 mi SE 18.4 mph 23.0 mph N/A   Clear
10:35 AM 77.0 °F - 62.6 °F 61% 30.12 in 10.0 mi SSE 13.8 mph - N/A   Clear
10:55 AM 78.8 °F - 62.6 °F 57% 30.12 in 10.0 mi SSE 15.0 mph 21.9 mph N/A   Clear
11:15 AM 77.0 °F - 64.4 °F 65% 30.13 in 10.0 mi SSE 11.5 mph - N/A   Clear
11:35 AM 80.6 °F 82.3 °F 64.4 °F 58% 30.13 in 10.0 mi SSE 15.0 mph - N/A   Clear
11:55 AM 80.6 °F 82.3 °F 64.4 °F 58% 30.13 in 10.0 mi SSE 15.0 mph 23.0 mph N/A   Clear
12:15 PM 82.4 °F 83.4 °F 62.6 °F 51% 30.12 in 10.0 mi SSE 20.7 mph 28.8 mph N/A   Clear
12:35 PM 82.4 °F 83.9 °F 64.4 °F 54% 30.11 in 10.0 mi SSE 19.6 mph 24.2 mph N/A   Clear
12:55 PM 84.2 °F 85.6 °F 64.4 °F 51% 30.11 in 10.0 mi SSE 20.7 mph 27.6 mph N/A   Clear
1:15 PM 84.2 °F 86.6 °F 66.2 °F 55% 30.10 in 10.0 mi SSE 19.6 mph 25.3 mph N/A   Clear
1:35 PM 86.0 °F 87.3 °F 64.4 °F 48% 30.09 in 10.0 mi SSE 19.6 mph 25.3 mph N/A   Clear
1:55 PM 86.0 °F 87.3 °F 64.4 °F 48% 30.09 in 10.0 mi SSE 21.9 mph 27.6 mph N/A   Clear
2:15 PM 84.2 °F 85.0 °F 62.6 °F 48% 30.12 in 10.0 mi South 17.3 mph - N/A Thunderstorm Partly Cloudy
2:35 PM 82.4 °F 83.4 °F 62.6 °F 51% 30.11 in 10.0 mi South 16.1 mph 20.7 mph N/A Thunderstorm Thunderstorm
2:55 PM 77.0 °F - 66.2 °F 69% 30.11 in 10.0 mi SSE 13.8 mph - 0.04 in   Mostly Cloudy
3:15 PM 77.0 °F - 66.2 °F 69% 30.11 in 10.0 mi SSE 10.4 mph - 0.01 in   Scattered Clouds
3:35 PM 77.0 °F - 66.2 °F 69% 30.11 in 10.0 mi South 9.2 mph - 0.01 in   Mostly Cloudy
3:55 PM 75.2 °F - 64.4 °F 69% 30.13 in 10.0 mi South 10.4 mph - 0.01 in Thunderstorm Mostly Cloudy
4:15 PM 75.2 °F - 68.0 °F 78% 30.15 in 10.0 mi Calm Calm - 0.01 in Thunderstorm Overcast
4:35 PM 73.4 °F - 69.8 °F 88% 30.13 in 9.0 mi SE 4.6 mph - 0.01 in Thunderstorm Thunderstorm
4:55 PM 71.6 °F - 66.2 °F 83% 30.07 in 10.0 mi SSE 18.4 mph - 0.01 in Thunderstorm Mostly Cloudy
5:15 PM 71.6 °F - 64.4 °F 78% 30.09 in 10.0 mi SSE 13.8 mph - 0.01 in Thunderstorm Thunderstorm
5:35 PM 71.6 °F - 62.6 °F 73% 30.07 in 10.0 mi South 18.4 mph 23.0 mph 0.01 in   Partly Cloudy
5:55 PM 73.4 °F - 62.6 °F 69% 30.07 in 9.0 mi South 16.1 mph 21.9 mph 0.01 in Thunderstorm Thunderstorm
6:15 PM 73.4 °F - 64.4 °F 73% 30.05 in 10.0 mi South 23.0 mph 26.5 mph 0.01 in Thunderstorm Thunderstorm
6:35 PM 73.4 °F - 64.4 °F 73% 30.05 in 10.0 mi South 19.6 mph 25.3 mph 0.01 in   Mostly Cloudy
6:55 PM 71.6 °F - 66.2 °F 83% 30.04 in 10.0 mi SSE 16.1 mph - 0.01 in   Overcast
7:15 PM 73.4 °F - 66.2 °F 78% 30.04 in 10.0 mi South 13.8 mph 17.3 mph N/A   Overcast
7:35 PM 73.4 °F - 66.2 °F 78% 30.04 in 10.0 mi South 16.1 mph 20.7 mph N/A   Mostly Cloudy
7:55 PM 73.4 °F - 68.0 °F 83% 30.05 in 10.0 mi SSE 9.2 mph - N/A   Partly Cloudy
8:15 PM 73.4 °F - 68.0 °F 83% 30.05 in 10.0 mi SE 9.2 mph - N/A   Partly Cloudy
8:35 PM 73.4 °F - 68.0 °F 83% 30.05 in 10.0 mi SSE 9.2 mph - N/A   Clear
8:55 PM 73.4 °F - 66.2 °F 78% 30.05 in 10.0 mi SSE 12.7 mph - N/A   Clear
9:15 PM 73.4 °F - 66.2 °F 78% 30.05 in 10.0 mi South 12.7 mph - N/A   Clear
9:35 PM 73.4 °F - 66.2 °F 78% 30.06 in 10.0 mi SSE 10.4 mph - N/A   Clear
9:55 PM 71.6 °F - 66.2 °F 83% 30.05 in 10.0 mi SE 8.1 mph - N/A   Clear
10:15 PM 71.6 °F - 66.2 °F 83% 30.06 in 10.0 mi SE 6.9 mph - N/A   Clear
10:35 PM 69.8 °F - 66.2 °F 88% 30.06 in 10.0 mi SSE 6.9 mph - N/A   Clear
10:55 PM 69.8 °F - 66.2 °F 88% 30.05 in 10.0 mi SE 6.9 mph - N/A   Clear
11:15 PM 69.8 °F - 66.2 °F 88% 30.05 in 10.0 mi ESE 5.8 mph - N/A   Clear
11:35 PM 69.8 °F - 64.4 °F 83% 30.05 in 10.0 mi SE 9.2 mph - N/A   Clear
11:55 PM 69.8 °F - 64.4 °F 83% 30.05 in 10.0 mi ESE 10.4 mph - N/A   Clear